Location: Dover
(39.1580°N, 75.5250°W)
Time: 11:19:23
(UTC-04:00)

ISS - All Passes

Search period start: 31 August 2015 00:00
Search period end: 10 September 2015 00:00
Orbit: 400 x 402 km, 51.6° (Epoch: 31 August)

Date Brightness Start Highest point End Pass type
(mag) Time Alt. Az. Time Alt. Az. Time Alt. Az.
31 Aug - 08:23:38 10° S 08:25:45 16° SE 08:27:56 10° E daylight
31 Aug - 09:58:46 10° WSW 10:01:55 47° NW 10:05:06 10° NE daylight
31 Aug - 11:37:24 10° NW 11:38:59 13° NNW 11:40:31 10° NNE daylight
31 Aug - 14:51:22 10° NNW 14:53:56 21° NNE 14:56:32 10° ENE daylight
31 Aug - 16:27:22 10° WNW 16:30:33 52° SW 16:33:42 10° SE daylight
01 Sep - 09:05:23 10° SW 09:08:38 85° SE 09:11:54 10° NE daylight
01 Sep - 10:43:11 10° WNW 10:45:25 17° NNW 10:47:39 10° NNE daylight
01 Sep - 13:58:26 10° NNW 14:00:25 15° NNE 14:02:26 10° ENE daylight
01 Sep - 15:34:03 10° NW 15:37:18 74° NE 15:40:33 10° ESE daylight
01 Sep - 17:12:41 10° WSW 17:13:20 10° SW 17:13:51 10° SW daylight
02 Sep - 08:12:22 10° SSW 08:15:24 39° SE 08:18:29 10° ENE daylight
02 Sep - 09:49:09 10° W 09:51:55 25° NNW 09:54:40 10° NNE daylight
02 Sep - 11:28:59 10° NNW 11:29:14 10° N 11:29:29 10° N daylight
02 Sep - 13:05:35 10° N 13:06:49 12° NNE 13:08:07 10° NE daylight
02 Sep - 14:40:53 10° NW 14:43:58 38° NNE 14:47:01 10° ESE daylight
02 Sep - 16:17:40 10° W 16:20:13 21° SW 16:22:44 10° S daylight
03 Sep - 07:19:51 10° S 07:22:14 19° SE 07:24:42 10° E daylight
03 Sep - 08:55:22 10° WSW 08:58:28 41° NNW 09:01:35 10° NE daylight
03 Sep - 10:34:12 10° NW 10:35:36 12° NNW 10:36:57 10° N daylight
03 Sep - 13:47:49 10° NNW 13:50:30 23° NNE 13:53:13 10° E daylight
03 Sep - 15:23:56 10° WNW 15:27:02 43° SW 15:30:07 10° SSE daylight
04 Sep - 08:01:51 10° SW 08:05:06 81° NW 08:08:22 10° NE daylight
04 Sep - 09:39:51 10° WNW 09:41:57 16° NNW 09:44:02 10° NNE daylight
04 Sep - 12:54:48 10° NNW 12:56:56 16° NNE 12:59:07 10° ENE daylight
04 Sep - 14:30:30 10° NW 14:33:46 88° NNE 14:37:00 10° SE daylight
05 Sep - 07:08:40 10° SSW 07:11:48 47° SE 07:14:57 10° ENE daylight
05 Sep - 08:45:42 10° W 08:48:22 22° NNW 08:51:01 10° NNE daylight
05 Sep - 12:01:52 10° NNW 12:03:18 12° NNE 12:04:47 10° NE daylight
05 Sep - 13:37:15 10° NW 13:40:22 44° NNE 13:43:30 10° ESE daylight
05 Sep - 15:14:15 10° W 15:16:35 18° SW 15:18:50 10° S daylight
06 Sep - 06:15:57 10° S 06:18:33 23° SE 06:21:12 10° ENE daylight
06 Sep - 07:51:48 10° W 07:54:50 36° NNW 07:57:54 10° NE daylight
06 Sep - 09:30:49 10° NNW 09:32:00 11° NNW 09:33:10 10° N daylight
06 Sep - 11:09:08 10° N 11:09:35 10° N 11:10:04 10° NNE daylight
06 Sep - 12:44:05 10° NNW 12:46:53 26° NNE 12:49:41 10° E daylight
06 Sep - 14:20:19 10° WNW 14:23:21 36° SW 14:26:21 10° SSE daylight
07 Sep - 05:24:18 10° SSE 05:25:20 11° SE 05:26:30 10° ESE visible
07 Sep - 06:58:09 10° WSW 07:01:23 68° NW 07:04:38 10° NE daylight
07 Sep - 08:36:21 10° NW 08:38:18 15° NNW 08:40:13 10° NNE daylight
07 Sep - 11:50:59 10° NNW 11:53:16 18° NNE 11:55:35 10° ENE daylight
07 Sep - 13:26:46 10° NW 13:30:02 79° SW 13:33:16 10° SE daylight
08 Sep - 06:04:49 10° SW 06:08:00 56° SE 06:11:13 10° ENE visible
08 Sep - 07:42:06 10° WNW 07:44:38 20° NNW 07:47:10 10° NNE daylight
08 Sep - 10:57:58 10° NNW 10:59:35 13° NNE 11:01:14 10° NE daylight
08 Sep - 12:33:24 10° NW 12:36:36 51° NE 12:39:46 10° ESE daylight
08 Sep - 14:10:42 10° W 14:12:45 15° SW 14:14:41 10° SSW daylight
09 Sep - 05:11:55 10° SSW 05:14:41 27° SE 05:17:30 10° ENE visible
09 Sep - 06:48:04 10° W 06:51:02 32° NNW 06:54:00 10° NE daylight
09 Sep - 08:27:15 10° NNW 08:28:14 11° N 08:29:11 10° N daylight
09 Sep - 10:05:04 10° N 10:05:49 11° N 10:06:35 10° NNE daylight
09 Sep - 11:40:11 10° NNW 11:43:04 29° NNE 11:45:57 10° E daylight
09 Sep - 13:16:32 10° WNW 13:19:27 30° SW 13:22:21 10° SSE daylight
